BAW469 LEPA-EGLL

Flight info

Callsign BAW469
Flight time N/A
Altitude 36000
Route DRAG5R DRAGO N863 GIROM GONUP MANAK EPAPU RINSO EKRAS UPALO REVTU BOLRO UP87 ROXOG ROXO1H
Aircraft A21N/M-SDE3FGHIRWY/LB1

Departure

Time 2026-05-01 13:12
Airport Palma de Mallorca Airport (LEPA)

Arrival

Time N/A
Airport London Heathrow Airport (EGLL)
Time Latitude Longitude Altitude Speed Heading
2026-05-01 12:40 39.55161 2.73008 43 ft 0 kts 195°
2026-05-01 12:59 39.55166 2.73010 42 ft 2 kts 195°
2026-05-01 12:59 39.55190 2.73016 42 ft 2 kts 166°
2026-05-01 13:00 39.55213 2.72992 42 ft 2 kts 109°
2026-05-01 13:00 39.55214 2.72972 42 ft 2 kts 80°
2026-05-01 13:01 39.55207 2.72952 42 ft 0 kts 58°
2026-05-01 13:07 39.55061 2.73937 42 ft 16 kts 149°
2026-05-01 13:07 39.54962 2.74016 42 ft 16 kts 148°
2026-05-01 13:07 39.54877 2.74083 42 ft 10 kts 149°
2026-05-01 13:08 39.54810 2.74130 42 ft 10 kts 170°
2026-05-01 13:08 39.54760 2.74066 42 ft 11 kts 239°
2026-05-01 13:08 39.54716 2.73974 42 ft 12 kts 239°
2026-05-01 13:08 39.54670 2.73876 42 ft 13 kts 238°
2026-05-01 13:09 39.54616 2.73761 42 ft 15 kts 239°
2026-05-01 13:09 39.54556 2.73634 41 ft 17 kts 238°
2026-05-01 13:09 39.54490 2.73496 41 ft 18 kts 238°
2026-05-01 13:09 39.54420 2.73348 41 ft 19 kts 238°
2026-05-01 13:10 39.54350 2.73201 41 ft 19 kts 238°
2026-05-01 13:10 39.54281 2.73055 41 ft 18 kts 239°
2026-05-01 13:10 39.54228 2.72941 41 ft 10 kts 238°
2026-05-01 13:10 39.54170 2.72936 41 ft 10 kts 136°
2026-05-01 13:11 39.54153 2.73027 41 ft 10 kts 93°
2026-05-01 13:11 39.54149 2.73125 41 ft 11 kts 94°
2026-05-01 13:11 39.54151 2.73224 41 ft 11 kts 63°
2026-05-01 13:11 39.54196 2.73320 41 ft 18 kts 59°
2026-05-01 13:12 39.54417 2.73787 42 ft 101 kts 59°
2026-05-01 13:12 39.54919 2.74850 45 ft 169 kts 59°
2026-05-01 13:12 39.55553 2.76201 707 ft 177 kts 61°
2026-05-01 13:12 39.56166 2.77517 1649 ft 174 kts 61°
2026-05-01 13:13 39.56809 2.78826 2425 ft 176 kts 59°
2026-05-01 13:13 39.57508 2.80214 2918 ft 193 kts 59°
2026-05-01 13:13 39.58263 2.81706 3449 ft 207 kts 59°
2026-05-01 13:13 39.59097 2.83312 3949 ft 226 kts 57°
2026-05-01 13:14 39.60044 2.85026 4514 ft 242 kts 51°
2026-05-01 13:14 39.61486 2.86257 5038 ft 264 kts 16°
2026-05-01 13:14 39.63332 2.86186 5770 ft 276 kts 342°
2026-05-01 13:14 39.64890 2.84792 6579 ft 283 kts 309°
2026-05-01 13:15 39.65690 2.82480 7409 ft 286 kts 283°
2026-05-01 13:15 39.66133 2.79984 8254 ft 288 kts 284°
2026-05-01 13:15 39.66660 2.77494 9103 ft 288 kts 288°
2026-05-01 13:15 39.67290 2.75064 9932 ft 289 kts 290°
2026-05-01 13:16 39.68010 2.72610 10687 ft 292 kts 292°
2026-05-01 13:16 39.68794 2.70132 11105 ft 307 kts 293°
2026-05-01 13:16 39.69660 2.67516 11461 ft 324 kts 294°
2026-05-01 13:17 39.72460 2.59344 13578 ft 335 kts 294°
2026-05-01 13:17 39.73276 2.56983 14169 ft 338 kts 294°
2026-05-01 13:18 39.75212 2.51386 15483 ft 345 kts 294°
2026-05-01 13:18 39.76198 2.48537 16099 ft 350 kts 294°
2026-05-01 13:18 39.77194 2.45656 16711 ft 353 kts 294°
2026-05-01 13:18 39.78201 2.42744 17311 ft 357 kts 294°
2026-05-01 13:19 39.79233 2.39759 17884 ft 361 kts 294°
2026-05-01 13:19 39.80261 2.36776 18458 ft 365 kts 294°
2026-05-01 13:19 39.82338 2.30748 19624 ft 370 kts 293°
2026-05-01 13:20 39.83386 2.27699 20190 ft 373 kts 293°
2026-05-01 13:20 39.84447 2.24614 20741 ft 376 kts 293°
2026-05-01 13:20 39.85474 2.21621 21249 ft 379 kts 293°
2026-05-01 13:21 39.87634 2.15318 22239 ft 386 kts 293°
2026-05-01 13:21 39.88726 2.12124 22727 ft 389 kts 293°
2026-05-01 13:21 39.89826 2.08902 23213 ft 392 kts 293°
2026-05-01 13:21 39.90929 2.05670 23693 ft 395 kts 293°
2026-05-01 13:22 39.92048 2.02391 24179 ft 398 kts 293°
2026-05-01 13:22 39.93167 1.99103 24645 ft 400 kts 293°
2026-05-01 13:22 39.94293 1.95795 25097 ft 402 kts 293°
2026-05-01 13:22 39.95427 1.92456 25543 ft 405 kts 292°
2026-05-01 13:23 39.96561 1.89110 25979 ft 407 kts 292°
2026-05-01 13:23 39.97700 1.85742 26412 ft 408 kts 292°
2026-05-01 13:23 39.98834 1.82386 26825 ft 410 kts 292°
2026-05-01 13:23 40.00170 1.79068 27193 ft 414 kts 304°
2026-05-01 13:24 40.02170 1.76364 27554 ft 420 kts 321°
2026-05-01 13:24 40.04713 1.74478 27921 ft 424 kts 335°
2026-05-01 13:24 40.07444 1.73074 28290 ft 426 kts 337°
2026-05-01 13:25 40.13033 1.70270 28919 ft 431 kts 337°
2026-05-01 13:25 40.15845 1.68847 29234 ft 434 kts 337°
2026-05-01 13:25 40.18658 1.67413 29503 ft 437 kts 336°
2026-05-01 13:25 40.21163 1.66131 29746 ft 439 kts 336°
2026-05-01 13:26 40.23855 1.64749 30023 ft 441 kts 336°
2026-05-01 13:26 40.26680 1.63297 30311 ft 443 kts 336°
2026-05-01 13:26 40.29588 1.61798 30595 ft 445 kts 336°
2026-05-01 13:26 40.32522 1.60283 30871 ft 447 kts 336°
2026-05-01 13:27 40.34419 1.59304 31048 ft 448 kts 336°
2026-05-01 13:27 40.37339 1.57795 31389 ft 448 kts 336°
2026-05-01 13:27 40.43124 1.54799 32141 ft 445 kts 336°
2026-05-01 13:28 40.48567 1.51973 32791 ft 444 kts 336°
2026-05-01 13:28 40.50356 1.51043 32992 ft 443 kts 336°
2026-05-01 13:29 40.56091 1.48057 33605 ft 442 kts 336°
2026-05-01 13:29 40.61787 1.45090 34184 ft 440 kts 336°
2026-05-01 13:30 40.73147 1.39170 34984 ft 441 kts 336°
2026-05-01 13:31 40.78861 1.36178 35285 ft 442 kts 336°
2026-05-01 13:31 40.87431 1.31679 35741 ft 443 kts 336°
2026-05-01 13:32 40.93142 1.28671 36006 ft 444 kts 336°
2026-05-01 13:33 41.00906 1.24573 36198 ft 445 kts 336°
2026-05-01 13:33 41.06644 1.21537 36204 ft 445 kts 336°
2026-05-01 13:34 41.17982 1.17233 36211 ft 447 kts 348°
2026-05-01 13:35 41.27067 1.15898 36221 ft 448 kts 353°
2026-05-01 13:36 41.35873 1.14919 36214 ft 448 kts 353°
2026-05-01 13:36 41.39679 1.14525 36215 ft 448 kts 353°
2026-05-01 13:37 41.40951 1.14394 36213 ft 448 kts 353°
2026-05-01 13:37 41.42652 1.14217 36213 ft 448 kts 353°
2026-05-01 13:38 41.52009 1.13232 36212 ft 447 kts 353°
2026-05-01 13:39 41.57841 1.12616 36205 ft 447 kts 353°
2026-05-01 13:39 41.63751 1.11990 36198 ft 447 kts 353°
2026-05-01 13:40 41.69456 1.11386 36200 ft 447 kts 353°
2026-05-01 13:40 41.75470 1.10752 36191 ft 447 kts 353°
2026-05-01 13:41 41.81124 1.10154 36198 ft 447 kts 353°
2026-05-01 13:41 41.87122 1.09516 36198 ft 447 kts 353°
2026-05-01 13:42 41.92228 1.08968 36194 ft 447 kts 353°
2026-05-01 13:42 41.97963 1.08353 36202 ft 447 kts 353°
2026-05-01 13:43 42.02673 1.07846 36210 ft 447 kts 353°
2026-05-01 13:43 42.07391 1.07337 36217 ft 447 kts 353°
2026-05-01 13:44 42.13617 1.06665 36222 ft 448 kts 353°
2026-05-01 13:44 42.18969 1.06093 36223 ft 448 kts 353°
2026-05-01 13:45 42.24802 1.05469 36222 ft 447 kts 353°
2026-05-01 13:45 42.30559 1.04847 36222 ft 447 kts 353°
2026-05-01 13:46 42.36484 1.04204 36233 ft 447 kts 353°
2026-05-01 13:46 42.41085 1.03704 36231 ft 447 kts 353°
2026-05-01 13:47 42.45730 1.03203 36235 ft 446 kts 353°
2026-05-01 13:47 42.51896 1.02534 36229 ft 446 kts 353°
2026-05-01 13:48 42.56731 1.02007 36232 ft 446 kts 353°
2026-05-01 13:48 42.62915 1.01328 36222 ft 446 kts 353°
2026-05-01 13:49 42.68420 1.00722 36221 ft 446 kts 353°